Torna al catalogo

ICEYE-X54

AttivoScienzaSSO
NORAD 64570·PAYLOAD·🇫🇮 Finland

Lanciato Jun 23, 2025 da Vandenberg Space Force Base

Loading…

Prossimi Passaggi (prossime 24 ore)

TLE

AggiornatoSource: Space-Track

Epoca: Sep 14, 2026, 22:15 UTC

1 64570U 25135AU  26257.92777699  .00002540  00000-0  23809-3 0  9992
2 64570  97.7795  11.5335 0003015  46.7785 313.3687 14.94913043 67307

Traccia ICEYE-X54 in tempo reale con AllMySat

Download on the App Store